Theta_e
330 322 321 314 299 299 297 300 304 304 305 311 321 317 311 311 309 304 316 338 360 361 365 366 366 367 366 365 364 363 363 362 362 362 362 364 364 364 364 364 365 366 364 360 358 356 357 358 356
326 321 315 304 295 292 295 300 302 304 308 310 313 313 311 308 313 313 314 328 361 362 361 365 366 366 365 364 364 363 363 363 362 362 362 364 364 364 364 365 365 366 363 360 357 356 357 357 356
327 320 304 298 294 293 294 300 302 307 310 309 308 319 319 311 316 315 316 326 360 357 361 366 367 366 365 365 364 363 363 363 363 362 362 363 364 363 363 364 365 365 362 361 358 357 358 358 358
315 310 304 296 295 298 301 301 304 306 308 309 310 311 315 319 317 315 317 318 359 356 362 366 366 366 365 365 364 363 363 363 363 362 362 363 364 363 362 364 364 365 364 361 359 359 359 359 358
313 304 296 294 294 299 304 305 306 305 306 307 309 308 310 315 317 315 315 318 359 359 360 363 366 366 366 366 364 364 363 362 362 362 362 362 364 363 362 364 364 364 364 362 360 359 358 357 356
302 301 292 291 296 302 304 305 306 305 306 306 306 306 306 311 312 313 314 314 361 361 360 361 365 365 365 365 364 363 362 362 362 361 361 361 363 363 363 364 364 364 364 362 360 359 358 356 356
298 297 294 295 299 301 304 306 304 304 303 304 306 303 305 308 311 312 312 313 351 362 360 361 363 365 366 364 363 362 362 361 361 361 360 361 362 362 363 363 364 364 363 361 360 359 358 357 356
302 299 295 295 296 298 304 303 303 303 303 308 311 302 298 305 311 311 311 311 338 360 360 358 359 362 362 362 364 363 362 362 361 360 360 361 362 362 363 361 363 363 362 361 360 358 357 356 355
304 294 291 294 298 296 301 299 303 305 303 306 307 306 307 310 310 309 308 308 312 357 356 359 359 359 359 359 363 363 364 363 361 360 360 358 358 359 361 361 362 363 362 361 359 358 356 355 354
298 293 295 299 299 295 298 299 301 302 303 303 305 308 309 309 307 306 305 306 306 308 316 323 349 354 355 358 360 359 360 359 357 356 356 355 353 355 357 360 362 363 362 360 359 357 356 355 343
298 294 299 299 301 301 299 299 302 300 297 301 301 304 306 307 305 306 306 305 304 306 312 318 321 323 325 339 358 356 357 357 356 354 354 353 352 350 354 354 357 359 360 356 356 353 350 344 340
297 299 300 299 301 298 298 301 300 300 299 305 306 306 305 305 305 304 306 306 307 309 312 311 322 320 322 331 341 355 355 355 355 354 351 352 346 345 349 349 352 356 356 352 351 349 347 341 338
296 299 302 301 299 298 301 299 299 300 304 306 307 308 305 305 306 308 310 310 309 310 312 316 316 319 324 322 324 337 354 353 354 354 352 352 347 345 346 347 350 353 353 351 348 345 344 341 340
299 299 299 298 297 298 298 299 299 302 305 306 307 305 305 306 307 309 311 311 312 312 317 319 317 318 322 323 325 333 341 351 354 353 354 353 352 347 347 346 349 351 352 351 347 344 342 341 339
299 293 297 298 299 297 300 296 298 303 305 305 306 306 306 308 311 311 312 312 314 315 320 320 321 324 323 323 326 327 331 335 348 350 352 354 354 351 348 347 344 349 350 349 346 344 342 341 340
295 292 287 297 299 300 299 290 300 303 304 304 306 306 307 309 311 312 313 312 315 314 318 320 325 321 322 323 328 327 327 332 339 346 350 345 351 354 349 346 345 344 349 347 345 342 341 341 341
291 287 291 296 300 299 296 292 301 303 302 303 305 304 307 308 310 310 312 312 313 314 316 318 321 320 321 323 324 325 327 327 330 341 343 337 339 350 350 347 345 344 345 344 344 340 342 342 340
289 289 292 292 296 296 295 295 299 302 302 304 304 303 306 306 307 310 311 312 312 313 315 317 319 321 323 323 322 325 325 325 327 336 346 341 340 348 349 348 345 343 343 344 342 341 342 342 340
295 292 292 295 299 296 295 296 298 301 301 302 302 303 304 306 309 310 312 312 312 313 313 315 316 318 322 321 319 318 320 323 324 326 338 347 345 341 343 347 345 344 342 342 342 342 341 338 339
295 291 290 296 300 296 295 295 298 301 301 303 303 303 304 305 307 309 308 310 310 311 313 312 313 315 320 318 317 319 318 320 325 328 330 332 341 342 342 345 345 344 343 341 343 342 337 337 338
293 291 293 293 297 297 295 292 297 301 304 304 303 305 306 305 305 306 308 308 309 309 310 312 312 315 315 317 319 317 318 319 319 320 321 326 329 330 344 339 343 345 344 341 343 341 340 335 335
290 298 298 297 293 286 295 284 294 299 298 301 303 303 305 305 305 306 305 305 306 308 309 309 310 314 315 313 311 310 312 313 317 318 320 319 322 325 329 341 334 340 344 341 342 342 340 338 333
294 299 295 295 290 288 291 286 292 298 296 298 301 303 304 304 305 304 305 306 306 306 305 306 307 308 313 312 312 312 311 314 317 317 316 316 318 324 331 338 338 336 343 342 341 342 340 338 334
301 295 294 292 288 281 291 290 291 295 298 299 301 304 304 304 304 305 305 304 303 304 304 304 304 305 306 310 310 308 309 313 314 315 315 315 317 321 330 337 339 339 343 342 339 343 341 338 336
295 288 282 283 282 282 294 292 294 300 302 302 301 302 303 304 303 303 302 303 301 301 303 304 303 303 304 306 307 309 309 310 314 315 315 314 315 319 330 338 337 342 343 343 340 342 341 339 335
291 290 286 280 279 285 295 287 293 302 303 304 304 304 304 302 303 303 302 302 301 301 302 303 302 302 304 305 305 308 309 310 313 315 317 317 317 319 324 336 339 335 342 344 342 342 342 339 339
293 289 295 288 289 283 287 292 300 302 302 303 302 304 302 301 303 303 303 301 301 301 301 301 301 302 303 304 305 305 306 309 312 314 318 319 320 321 323 336 340 335 337 339 342 342 342 341 337
294 299 288 287 280 279 287 288 290 297 299 302 300 299 301 303 303 302 302 301 301 299 300 301 300 301 302 303 303 305 306 308 309 311 315 318 321 323 327 334 337 338 337 337 338 342 342 340 338
291 289 290 291 289 280 278 285 298 297 299 299 299 301 302 301 302 302 300 300 299 299 299 299 300 300 302 303 304 304 304 305 307 309 313 317 321 323 324 333 335 333 335 334 336 341 341 339 337
297 292 291 282 284 287 285 285 301 300 299 299 301 304 302 302 301 301 300 299 299 298 299 299 299 300 301 302 303 303 304 304 305 307 311 316 318 323 325 333 335 335 332 333 331 339 341 340 336
Wind_Speed
8 9 3 3 5 4 5 3 5 11 8 8 14 20 20 9 7 5 7 6 17 13 10 11 15 15 13 14 16 16 15 12 13 13 12 11 11 12 12 12 13 13 14 13 13 12 10 9 7
5 7 1 2 4 4 5 4 11 9 7 8 13 20 20 14 4 4 5 3 17 15 10 10 15 15 12 13 14 16 16 15 13 12 11 11 10 11 12 11 11 12 13 13 13 11 9 8 5
4 4 2 4 4 5 3 4 5 9 12 8 5 9 8 10 7 2 7 6 15 13 10 10 16 16 14 11 12 14 15 16 16 14 11 11 10 10 10 10 11 12 12 12 12 11 9 7 3
3 3 5 2 8 5 9 3 5 8 11 11 5 12 13 8 4 3 7 9 17 15 13 15 16 16 16 12 11 13 14 15 16 16 14 11 10 10 10 9 9 11 11 11 11 9 7 7 4
3 2 1 4 6 3 7 5 8 11 7 15 7 9 14 9 8 8 10 6 17 12 12 15 19 18 16 15 12 11 14 14 15 16 16 14 11 10 9 10 10 9 9 10 10 10 8 6 5
3 2 3 4 1 4 5 7 9 9 12 7 10 7 6 4 11 9 10 9 10 12 10 11 15 16 18 16 14 12 11 14 14 14 15 15 14 12 11 10 10 10 10 9 10 10 9 7 6
4 2 6 6 6 6 2 6 8 6 10 7 2 2 5 11 9 9 10 10 8 11 10 8 10 11 13 17 19 14 11 11 14 15 14 15 14 14 13 11 11 11 11 10 9 10 10 9 8
2 3 6 5 0 5 1 6 9 10 6 3 1 4 3 4 9 9 9 11 7 9 8 7 6 6 5 6 11 16 13 10 10 13 16 15 14 13 13 12 11 11 11 11 9 9 10 9 9
3 3 5 3 5 3 7 7 5 4 3 3 5 9 5 7 10 10 9 9 9 4 3 3 8 7 7 7 9 10 14 13 11 10 12 11 8 10 11 10 11 12 12 13 12 10 10 10 10
4 3 2 4 5 5 5 5 5 4 6 2 6 9 11 11 8 8 8 8 9 8 9 14 7 3 1 4 7 8 8 6 7 6 6 5 6 8 12 13 14 14 13 13 13 12 11 9 4
3 5 1 3 6 6 4 3 3 2 1 4 5 7 8 4 5 8 8 6 7 6 6 8 7 8 8 7 1 2 3 5 6 9 7 7 7 6 8 6 7 7 12 6 8 8 5 6 5
3 6 4 3 5 2 4 2 3 3 3 9 8 6 2 5 0 3 6 7 8 9 9 9 8 7 7 4 4 3 3 4 5 9 11 8 5 7 8 6 8 9 7 7 7 5 7 7 8
5 8 4 3 4 5 1 2 4 7 5 9 8 4 3 1 6 8 10 10 9 9 9 11 8 7 6 6 2 1 2 2 4 6 10 10 9 7 6 8 8 8 8 9 8 8 8 9 10
1 6 7 5 5 4 5 4 4 8 3 8 7 3 1 7 9 8 9 8 9 8 9 9 10 8 7 6 7 5 3 2 3 4 8 14 10 10 8 9 9 10 10 9 10 10 9 10 9
1 3 9 9 9 6 8 5 7 11 8 7 5 5 7 9 10 9 7 7 7 5 6 8 8 9 9 8 5 5 5 6 3 4 6 11 13 12 12 8 10 10 10 12 10 11 9 9 8
5 4 3 10 9 6 12 8 10 6 8 7 7 7 8 8 9 8 8 6 7 6 6 6 6 8 7 7 7 5 5 4 6 4 5 11 13 15 13 10 11 10 11 10 10 10 10 10 8
4 5 7 7 11 8 7 6 8 6 6 6 7 8 9 8 9 8 8 7 6 6 7 7 5 5 7 7 5 8 7 5 5 6 5 8 16 16 12 13 9 12 8 12 12 11 10 10 9
3 3 5 2 2 2 8 8 9 10 7 7 7 9 9 9 8 7 7 5 1 2 3 5 6 6 6 6 4 4 5 5 4 6 6 10 7 16 15 13 13 11 12 10 10 14 9 9 8
3 4 7 7 8 5 9 8 7 7 6 8 7 9 9 9 8 8 5 3 2 4 4 4 4 6 4 2 3 6 7 8 8 8 13 11 9 11 16 12 13 10 15 15 12 10 11 6 7
3 4 6 8 9 4 7 10 9 8 8 9 10 10 10 8 7 6 4 2 3 3 4 6 7 7 4 3 4 3 3 8 8 6 9 11 13 9 13 12 17 17 13 14 10 13 4 4 9
5 4 6 9 5 6 8 10 18 14 14 9 10 10 10 10 8 5 2 2 2 3 4 5 8 8 5 5 3 3 5 7 8 8 8 9 13 17 16 15 18 18 17 14 12 14 15 9 5
5 8 9 4 6 4 7 9 14 16 5 13 11 10 9 9 7 4 1 2 3 4 4 5 6 7 4 5 4 6 8 11 9 9 7 8 12 17 21 21 21 22 15 19 15 13 12 12 11
8 7 6 5 6 7 12 6 9 9 8 10 11 11 9 9 8 3 3 1 2 4 4 5 7 7 7 6 6 6 8 10 9 9 8 10 13 15 21 20 19 18 19 19 18 14 14 11 11
6 5 9 5 2 4 19 9 10 7 12 13 6 12 10 8 4 4 2 2 2 4 3 4 6 5 7 8 8 9 9 12 12 11 9 9 10 13 20 20 16 13 18 14 15 15 16 13 13
4 3 4 4 2 9 5 7 15 6 9 14 14 10 9 7 4 3 4 4 3 5 4 4 6 7 8 8 9 11 11 12 14 11 10 12 11 13 19 19 17 10 16 13 11 14 14 15 14
9 10 7 5 3 4 6 6 3 10 13 13 11 9 6 4 4 4 4 3 4 5 5 5 6 7 8 11 14 12 15 11 12 11 10 11 12 14 21 19 17 19 16 11 8 11 13 14 12
4 6 6 3 5 2 6 4 3 8 8 8 8 7 7 1 5 5 5 5 2 4 5 5 7 8 11 13 13 13 13 14 15 16 12 11 16 15 21 22 17 17 18 15 14 10 15 15 14
4 1 4 2 3 6 6 7 4 6 6 6 5 2 5 6 5 2 1 2 3 2 3 5 6 9 13 13 11 12 14 15 17 16 18 17 18 19 21 20 15 16 21 14 20 15 15 16 14
3 2 3 4 5 5 1 7 6 6 8 7 6 8 7 7 5 2 3 4 2 4 6 6 7 9 12 13 14 15 14 16 17 16 18 18 18 18 18 15 15 18 16 19 13 19 20 19 18
9 10 9 6 5 5 3 8 6 8 6 3 7 8 7 5 6 5 6 6 6 6 6 6 6 11 13 15 14 15 15 16 17 17 18 19 19 19 14 16 14 17 16 19 19 18 21 22 19
Wind_Direction
312 294 229 318 35 74 310 39 131 43 47 63 79 90 87 82 67 123 270 73 120 127 140 137 128 130 133 132 131 128 127 125 124 126 122 117 114 110 112 117 120 119 119 117 117 117 115 111 110
315 305 197 275 90 46 290 8 69 60 42 66 98 97 82 90 88 92 348 26 132 141 145 141 132 131 137 140 138 136 136 133 132 132 131 129 124 127 127 125 126 126 128 128 126 126 125 122 126
285 243 47 149 190 174 152 19 34 84 55 45 26 73 90 116 48 82 303 17 125 134 136 147 138 137 141 148 143 143 143 142 143 145 145 143 138 138 137 137 136 134 138 134 133 133 135 131 142
294 330 329 93 259 303 134 63 21 69 42 45 43 69 56 78 94 3 332 15 147 154 141 152 145 143 146 150 153 151 152 151 152 152 152 154 150 150 149 145 144 143 144 140 138 136 143 145 168
187 281 253 240 268 111 52 36 47 66 58 63 58 63 79 49 47 11 345 31 146 148 152 154 151 150 151 153 159 164 160 159 161 158 158 161 160 159 159 155 153 153 151 148 146 145 152 166 189
334 127 346 269 140 93 42 32 66 59 60 29 44 68 76 25 30 346 339 330 153 151 142 148 150 154 154 157 160 167 172 167 167 166 165 167 165 165 165 166 163 161 161 161 156 154 159 178 203
176 43 257 292 119 56 87 58 70 65 63 51 38 5 124 37 10 354 339 340 125 127 129 142 152 162 167 162 158 162 172 181 174 170 172 172 169 170 170 172 173 171 165 169 171 165 167 182 204
204 95 301 310 163 120 128 59 89 66 61 325 81 44 16 13 9 1 355 1 86 98 133 143 133 136 138 152 160 157 165 179 192 183 174 174 173 175 179 176 181 179 171 170 179 178 179 190 205
342 20 305 26 67 67 27 59 45 94 102 73 77 86 83 43 18 10 1 9 75 98 105 156 160 160 163 158 172 169 169 175 186 198 193 175 174 176 184 187 191 183 180 175 179 189 190 202 211
129 126 308 85 64 32 60 53 85 58 17 352 60 52 47 30 3 8 18 6 17 50 62 60 61 21 138 178 170 169 167 167 168 177 188 189 191 184 187 190 198 192 187 182 181 190 201 204 217
225 186 43 82 79 38 3 55 48 59 292 105 82 64 53 25 345 12 15 24 2 25 52 46 68 68 46 33 44 284 171 172 179 180 186 199 204 199 199 199 195 189 197 192 187 186 199 210 213
29 299 135 161 112 74 316 71 338 293 180 118 103 101 109 261 327 77 51 17 18 15 11 46 48 46 54 48 41 341 280 193 199 197 182 189 209 213 200 202 195 190 190 194 190 193 200 217 220
193 268 171 186 204 188 196 344 248 304 282 126 125 138 202 9 70 52 43 36 27 27 15 9 39 23 35 26 13 82 245 318 251 222 203 187 200 212 204 203 192 198 192 195 195 199 201 215 224
344 339 311 309 275 224 165 240 27 267 128 126 134 134 173 92 75 66 53 33 28 15 26 7 4 24 18 11 357 346 343 284 254 287 233 211 199 204 211 205 197 196 201 201 198 198 203 211 214
234 320 298 265 222 208 96 318 231 239 144 139 149 200 100 93 74 79 66 41 30 16 30 17 7 9 7 354 341 334 321 323 278 261 289 239 215 209 208 207 202 201 200 197 208 205 207 213 214
298 275 273 262 185 172 103 269 288 136 160 181 183 126 107 97 96 76 61 43 26 13 9 16 12 357 355 341 330 319 304 300 302 257 255 302 283 220 212 215 214 198 198 197 199 209 207 211 207
252 243 214 282 152 147 132 205 253 281 285 217 165 151 127 111 86 76 67 65 27 6 356 343 345 342 321 317 317 306 298 285 271 274 235 225 280 280 219 217 219 211 197 203 201 205 210 200 199
341 207 309 326 301 185 222 227 222 240 236 226 188 146 127 117 125 120 106 97 47 330 331 327 321 314 299 298 311 302 314 304 300 276 257 244 232 258 263 224 217 209 213 208 200 204 208 190 190
49 324 307 303 298 319 283 272 272 270 277 257 205 149 142 134 140 115 109 91 301 268 280 299 302 287 299 313 328 311 310 312 307 299 295 267 238 235 258 266 225 204 214 215 212 194 186 183 169
321 319 282 285 284 296 326 300 281 250 239 230 184 155 150 138 134 112 97 113 308 283 267 268 272 272 244 266 262 250 281 297 291 304 300 287 282 243 243 261 246 220 214 216 201 196 161 174 175
288 245 271 258 310 333 330 290 271 255 251 211 151 147 143 150 141 128 206 60 47 345 302 285 284 272 253 279 307 299 292 289 296 295 296 301 314 311 267 250 267 228 211 205 204 195 190 185 188
269 267 276 340 13 278 46 283 294 286 230 152 154 153 157 143 139 136 60 18 319 288 334 355 356 319 290 285 296 283 282 286 281 285 281 294 296 290 282 266 234 276 210 206 201 201 192 186 189
238 48 5 1 324 335 273 270 269 249 196 181 172 170 138 143 114 70 33 32 16 17 0 10 345 329 301 286 265 266 279 285 281 280 278 277 285 273 268 259 252 242 232 200 194 194 194 192 186
42 19 333 301 210 285 254 194 275 261 202 175 134 131 128 114 103 76 20 24 9 13 18 325 312 301 310 291 277 266 275 287 286 279 270 274 279 279 265 245 226 233 251 227 189 183 191 183 192
108 88 325 335 172 224 275 213 230 310 120 128 125 118 119 144 129 108 5 333 355 355 354 348 348 312 301 299 312 291 282 287 279 274 270 276 280 276 271 244 218 202 196 251 180 178 184 190 190
198 163 168 229 249 288 293 253 325 86 76 88 99 118 150 155 127 90 349 40 31 355 4 339 321 317 320 325 319 317 311 295 282 272 257 265 270 274 270 251 226 205 203 196 253 194 184 190 191
277 198 217 65 335 337 247 283 69 108 111 129 150 161 164 76 101 49 15 101 24 34 352 339 344 326 326 321 315 310 306 313 309 293 270 265 269 270 267 251 227 205 199 198 213 207 193 190 197
171 66 52 0 210 252 264 247 186 135 164 132 112 184 163 105 88 48 16 97 55 52 330 0 336 317 309 305 307 307 311 309 306 303 295 288 271 271 278 243 222 192 198 207 214 214 189 191 195
168 226 203 154 172 190 309 278 137 111 134 141 207 239 206 146 144 108 63 86 48 20 9 331 312 316 317 318 315 311 310 307 300 294 294 287 287 272 278 246 209 200 192 192 223 210 187 191 193
202 196 177 140 242 217 192 266 45 116 123 172 259 273 138 143 98 68 71 34 13 10 334 313 325 315 315 314 312 310 303 300 298 295 296 294 290 273 268 266 196 199 183 195 205 224 191 188 193